Lapse_Rate
2.9 2.7 2.7 2.8 2.4 2.4 2.7 2.6 1.7 1.0 0.6 0.4 0.7 0.5 0.3 -0.2 -0.1 0.1 0.1 0.6 1.1 1.7
3.0 3.3 3.4 3.1 2.2 2.4 2.2 2.4 1.6 1.5 1.4 0.5 0.6 0.7 0.3 0.6 0.5 0.7 0.6 1.0 1.4 1.6
1.0 1.8 2.6 2.9 2.9 2.4 3.3 3.6 3.9 3.4 2.7 2.4 1.2 1.0 1.1 1.0 1.2 1.4 1.1 1.3 1.7 2.3
1.3 1.6 1.8 2.1 2.5 2.8 5.2 5.1 4.8 4.5 3.8 3.3 2.9 2.5 2.0 1.9 2.0 2.1 2.0 2.2 2.6 3.0
2.0 2.3 2.6 2.9 3.1 3.7 4.6 5.6 5.3 5.2 4.5 3.9 3.6 3.4 3.3 3.2 3.4 2.7 2.4 2.6 2.6 2.7
1.8 2.0 2.4 2.8 3.2 3.3 4.1 5.6 5.3 5.3 4.8 4.4 4.1 4.2 3.8 4.0 4.1 3.8 3.7 4.0 3.4 3.3
1.7 2.0 2.2 2.4 2.6 3.1 3.7 5.4 5.3 5.3 5.5 5.4 4.8 4.5 4.6 4.6 4.4 4.2 4.1 4.5 4.4 4.6
3.0 3.0 2.8 2.6 2.8 3.2 3.2 4.2 5.4 5.4 5.1 4.9 4.5 4.2 3.8 4.0 4.2 4.3 4.4 4.4 3.9 4.1
3.5 3.5 3.5 3.5 3.6 3.3 3.7 4.4 5.0 5.2 5.6 4.6 4.3 3.6 3.6 3.8 4.4 4.3 4.6 4.0 3.9 4.6
3.0 3.0 3.1 3.4 3.7 4.3 4.6 5.8 6.2 6.0 5.4 5.0 4.6 4.1 4.4 4.6 4.6 4.3 4.3 4.3 4.8 4.3
2.3 2.3 2.6 2.9 3.3 3.7 4.7 5.8 6.1 5.8 5.8 5.0 4.1 4.3 4.6 4.3 3.5 3.8 4.6 4.6 4.6 4.6
2.3 2.3 2.4 2.8 3.4 3.5 4.2 4.9 6.8 6.5 6.2 5.6 4.8 4.4 4.5 4.5 4.4 4.9 4.4 4.0 4.0 4.1
2.9 3.0 3.1 3.6 4.0 3.8 5.1 6.3 5.7 7.1 6.7 5.9 4.6 4.7 4.7 4.8 4.5 4.6 4.1 3.9 4.2 5.7
2.9 3.2 3.5 4.4 6.2 5.9 6.0 7.5 6.9 6.9 7.2 5.8 4.7 4.9 5.9 5.5 5.0 4.8 4.5 4.4 4.6 4.8
Wind_Speed
6 4 5 6 5 5 6 7 7 8 8 9 10 10 9 4 4 6 5 6 5 4
6 6 6 7 6 6 6 6 6 9 9 8 9 8 6 5 6 5 5 6 5 4
7 6 6 7 8 7 7 9 8 9 10 9 8 8 8 5 5 6 4 4 6 4
9 8 7 6 7 8 10 10 11 11 11 11 11 10 9 9 9 9 7 6 7 7
10 10 9 9 8 8 8 10 11 11 10 11 11 11 12 12 10 12 11 10 8 6
10 10 11 11 10 8 8 9 9 9 10 11 12 12 12 12 9 8 7 6 7 6
12 12 11 11 10 9 8 9 7 9 11 12 11 10 10 9 8 6 6 6 5 5
10 11 13 14 13 11 9 9 9 9 9 8 8 7 8 9 7 6 5 5 5 6
8 10 11 13 15 14 12 12 11 11 10 9 7 13 16 13 9 9 8 6 4 4
9 10 11 12 13 14 14 13 12 12 10 10 10 14 17 17 9 10 9 7 6 4
12 12 12 12 12 13 13 14 13 12 11 8 5 11 13 14 7 7 8 7 7 5
14 15 15 14 13 12 13 13 14 13 11 11 9 15 15 12 7 6 6 6 5 6
13 13 14 15 15 12 14 15 12 15 12 14 8 12 14 12 6 7 5 5 5 11
12 13 13 15 15 14 15 16 15 15 14 11 10 11 19 20 9 7 6 5 5 4
Wind_Direction
282 250 231 223 220 222 221 224 212 209 213 214 211 206 199 195 199 197 200 202 208 199
313 280 267 258 233 231 223 218 208 203 209 209 211 209 198 206 206 192 197 210 209 214
314 309 291 276 265 239 233 224 214 216 216 214 209 205 201 206 205 201 204 201 200 205
339 328 310 289 273 251 248 228 224 218 213 212 209 207 205 210 203 208 205 198 199 212
335 336 327 317 300 282 262 244 230 224 216 213 213 205 206 214 213 211 208 203 189 198
346 338 330 321 317 305 279 261 240 226 219 219 215 209 209 212 214 221 221 221 202 183
343 338 333 326 316 309 301 283 251 232 226 223 219 212 209 205 212 200 198 202 194 182
332 338 337 336 332 324 310 294 277 255 239 225 211 202 195 187 178 174 183 200 182 186
338 339 339 336 332 322 315 307 289 267 245 221 207 190 185 181 185 182 177 176 184 163
339 339 336 329 327 325 316 304 293 278 253 235 222 205 203 196 187 174 166 168 170 172
339 334 330 326 322 321 319 310 289 278 258 240 228 200 198 176 163 161 156 161 167 175
334 329 325 317 317 316 309 310 307 279 258 236 225 190 182 161 154 146 148 130 167 176
323 318 314 310 307 310 305 301 302 295 265 227 201 198 179 153 142 146 143 163 176 202
311 306 303 305 309 307 302 301 295 293 275 225 197 181 185 165 160 157 162 174 189 201